Tracking 20370 objects as of 20-Feb-2020
HD Live streaming from Space Station
objects crossing your sky now
Track the group of recently launched Starlink satellites

COSMOS 592

Track COSMOS 592 now!
10-day predictions
COSMOS 592 is classified as:


NORAD ID: 6849
Int'l Code: 1973-069E
Perigee: 1,337.1 km
Apogee: 1,491.3 km
Inclination: 74.0 °
Period: 113.9 minutes
Semi major axis: 7785 km
RCS: 0.7024 m2 (medium)
Launch date: October 2, 1973
Source: Commonwealth of Independent States (former USSR) (CIS)
Launch site: PLESETSK MISSILE AND SPACE COMPLEX (PKMTR)
aabbcc
Your satellite tracking list
Your tracking list is empty




NASA's NSSDC Master Catalog

Two Line Element Set (TLE):
1  6849U 73069E   20050.54730934 +.00000005 +00000-0 +12043-3 0  9992
2  6849 073.9979 249.1271 0099080 310.8808 048.3697 12.63859724139853
Source of the keplerian elements: AFSPC